TimeCST,TemperatureF,Dew PointF,Humidity,Sea Level PressureIn,VisibilityMPH,Wind Direction,Wind SpeedMPH,Gust SpeedMPH,PrecipitationIn,Events,Conditions,WindDirDegrees,DateUTC
12:15 AM,32.0,24.8,75,30.14,10.0,Calm,Calm,-,N/A,,Clear,0,2012-11-16 06:15:00
12:35 AM,32.0,24.8,75,30.13,10.0,Calm,Calm,-,N/A,,Clear,0,2012-11-16 06:35:00
12:55 AM,28.4,24.8,86,30.12,10.0,Calm,Calm,-,N/A,,Clear,0,2012-11-16 06:55:00
1:15 AM,30.2,24.8,80,30.12,10.0,North,4.6,-,N/A,,Clear,10,2012-11-16 07:15:00
1:35 AM,30.2,24.8,80,30.11,10.0,WNW,4.6,-,N/A,,Clear,300,2012-11-16 07:35:00
1:55 AM,32.0,24.8,75,30.10,10.0,Calm,Calm,-,N/A,,Clear,0,2012-11-16 07:55:00
2:15 AM,32.0,24.8,75,30.09,10.0,Calm,Calm,-,N/A,,Clear,0,2012-11-16 08:15:00
2:35 AM,32.0,24.8,75,30.08,10.0,Calm,Calm,-,N/A,,Clear,0,2012-11-16 08:35:00
2:55 AM,32.0,24.8,75,30.08,10.0,SSE,8.1,-,N/A,,Clear,160,2012-11-16 08:55:00
3:15 AM,32.0,24.8,75,30.07,10.0,South,8.1,-,N/A,,Clear,170,2012-11-16 09:15:00
3:35 AM,32.0,24.8,75,30.06,10.0,SSE,4.6,-,N/A,,Clear,150,2012-11-16 09:35:00
3:55 AM,30.2,24.8,80,30.05,10.0,SE,8.1,-,N/A,,Clear,140,2012-11-16 09:55:00
4:15 AM,32.0,24.8,75,30.04,10.0,SSE,3.5,-,N/A,,Clear,150,2012-11-16 10:15:00
4:35 AM,30.2,24.8,80,30.03,10.0,South,4.6,-,N/A,,Clear,190,2012-11-16 10:35:00
4:55 AM,30.2,24.8,80,30.03,10.0,Calm,Calm,-,N/A,,Clear,0,2012-11-16 10:55:00
5:15 AM,30.2,24.8,80,30.02,10.0,SW,3.5,-,N/A,,Clear,230,2012-11-16 11:15:00
5:35 AM,30.2,24.8,80,30.02,10.0,Calm,Calm,-,N/A,,Clear,0,2012-11-16 11:35:00
5:55 AM,30.2,24.8,80,30.01,10.0,SE,6.9,-,N/A,,Clear,130,2012-11-16 11:55:00
6:15 AM,28.4,24.8,86,30.00,10.0,SSE,8.1,-,N/A,,Clear,150,2012-11-16 12:15:00
6:35 AM,30.2,24.8,80,30.00,10.0,SSE,8.1,-,N/A,,Clear,160,2012-11-16 12:35:00
6:55 AM,30.2,24.8,80,29.99,10.0,SSE,9.2,-,N/A,,Clear,150,2012-11-16 12:55:00
7:15 AM,30.2,24.8,80,29.99,10.0,SSE,9.2,-,N/A,,Clear,150,2012-11-16 13:15:00
7:35 AM,30.2,24.8,80,29.99,10.0,SSE,6.9,-,N/A,,Clear,160,2012-11-16 13:35:00
7:55 AM,30.2,24.8,80,29.99,10.0,SSE,6.9,-,N/A,,Clear,160,2012-11-16 13:55:00
8:15 AM,30.2,24.8,80,29.99,10.0,SE,5.8,-,N/A,,Clear,140,2012-11-16 14:15:00
8:35 AM,30.2,24.8,80,29.99,10.0,SSE,4.6,-,N/A,,Clear,150,2012-11-16 14:35:00
8:55 AM,32.0,24.8,75,29.98,10.0,SSE,6.9,-,N/A,,Clear,160,2012-11-16 14:55:00
9:15 AM,32.0,24.8,75,29.97,10.0,SE,8.1,-,N/A,,Clear,140,2012-11-16 15:15:00
9:35 AM,32.0,24.8,75,29.97,10.0,SSE,6.9,-,N/A,,Clear,160,2012-11-16 15:35:00
9:55 AM,32.0,24.8,75,29.97,10.0,South,5.8,-,N/A,,Clear,180,2012-11-16 15:55:00
10:15 AM,32.0,26.6,80,29.96,10.0,South,10.4,-,N/A,,Clear,170,2012-11-16 16:15:00
10:35 AM,32.0,26.6,80,29.96,10.0,SSE,8.1,-,N/A,,Clear,160,2012-11-16 16:35:00
10:55 AM,33.8,26.6,75,29.95,10.0,South,9.2,-,N/A,,Clear,180,2012-11-16 16:55:00
11:15 AM,35.6,26.6,70,29.96,10.0,South,5.8,-,N/A,,Clear,180,2012-11-16 17:15:00
11:35 AM,35.6,28.4,75,29.96,10.0,Calm,Calm,-,N/A,,Partly Cloudy,0,2012-11-16 17:35:00
11:55 AM,37.4,28.4,70,29.95,10.0,Calm,Calm,-,N/A,,Clear,0,2012-11-16 17:55:00
12:15 PM,39.2,28.4,65,29.95,10.0,Calm,Calm,-,N/A,,Clear,0,2012-11-16 18:15:00
12:35 PM,37.4,28.4,70,29.95,10.0,Calm,Calm,-,N/A,,Clear,0,2012-11-16 18:35:00
12:55 PM,39.2,28.4,65,29.94,10.0,Calm,Calm,-,N/A,,Clear,0,2012-11-16 18:55:00
1:15 PM,37.4,28.4,70,29.93,10.0,Calm,Calm,-,N/A,,Clear,0,2012-11-16 19:15:00
1:35 PM,39.2,28.4,65,29.93,10.0,Calm,Calm,-,N/A,,Clear,0,2012-11-16 19:35:00
1:55 PM,39.2,28.4,65,29.93,10.0,Calm,Calm,-,N/A,,Clear,0,2012-11-16 19:55:00
2:15 PM,39.2,28.4,65,29.93,10.0,Calm,Calm,-,N/A,,Clear,0,2012-11-16 20:15:00
2:35 PM,39.2,28.4,65,29.93,10.0,Calm,Calm,-,N/A,,Clear,0,2012-11-16 20:35:00
2:55 PM,37.4,28.4,70,29.92,10.0,Calm,Calm,-,N/A,,Clear,0,2012-11-16 20:55:00
3:15 PM,37.4,28.4,70,29.92,10.0,Calm,Calm,-,N/A,,Clear,0,2012-11-16 21:15:00
3:35 PM,37.4,30.2,75,29.92,10.0,Calm,Calm,-,N/A,,Clear,0,2012-11-16 21:35:00
3:55 PM,37.4,30.2,75,29.93,10.0,Calm,Calm,-,N/A,,Clear,0,2012-11-16 21:55:00
4:15 PM,35.6,28.4,75,29.93,10.0,Calm,Calm,-,N/A,,Clear,0,2012-11-16 22:15:00
4:35 PM,33.8,28.4,81,29.92,9.0,Calm,Calm,-,N/A,,Clear,0,2012-11-16 22:35:00
4:55 PM,32.0,28.4,87,29.93,10.0,South,3.5,-,N/A,,Clear,170,2012-11-16 22:55:00
5:15 PM,32.0,26.6,80,29.93,10.0,Calm,Calm,-,N/A,,Clear,0,2012-11-16 23:15:00
5:35 PM,32.0,26.6,80,29.94,10.0,Calm,Calm,-,N/A,,Clear,0,2012-11-16 23:35:00
6:15 PM,28.4,24.8,86,29.94,10.0,Calm,Calm,-,N/A,,Clear,0,2012-11-17 00:15:00
6:35 PM,28.4,26.6,93,29.95,10.0,SSW,3.5,-,N/A,,Clear,210,2012-11-17 00:35:00
6:55 PM,28.4,26.6,93,29.95,10.0,Calm,Calm,-,N/A,,Clear,0,2012-11-17 00:55:00
7:15 PM,26.6,24.8,93,29.95,10.0,Calm,Calm,-,N/A,,Clear,0,2012-11-17 01:15:00
7:55 PM,28.4,26.6,93,29.95,10.0,Calm,Calm,-,N/A,,Clear,0,2012-11-17 01:55:00
8:15 PM,26.6,26.6,100,29.94,10.0,Calm,Calm,-,N/A,,Unknown,0,2012-11-17 02:15:00
8:35 PM,26.6,24.8,93,29.95,10.0,Calm,Calm,-,N/A,,Clear,0,2012-11-17 02:35:00
8:55 PM,26.6,24.8,93,29.95,10.0,Calm,Calm,-,N/A,,Clear,0,2012-11-17 02:55:00
9:15 PM,28.4,26.6,93,29.95,10.0,Calm,Calm,-,N/A,,Clear,0,2012-11-17 03:15:00
9:35 PM,28.4,26.6,93,29.95,10.0,Calm,Calm,-,N/A,,Clear,0,2012-11-17 03:35:00
9:55 PM,26.6,26.6,100,29.95,10.0,Calm,Calm,-,N/A,,Clear,0,2012-11-17 03:55:00
10:15 PM,28.4,26.6,93,29.95,10.0,Calm,Calm,-,N/A,,Scattered Clouds,0,2012-11-17 04:15:00
10:35 PM,26.6,24.8,93,29.95,10.0,Calm,Calm,-,N/A,,Partly Cloudy,0,2012-11-17 04:35:00
10:55 PM,28.4,26.6,93,29.95,10.0,Calm,Calm,-,N/A,,Clear,0,2012-11-17 04:55:00
11:15 PM,28.4,26.6,93,29.96,10.0,Calm,Calm,-,N/A,,Clear,0,2012-11-17 05:15:00
11:35 PM,26.6,24.8,93,29.96,10.0,Calm,Calm,-,N/A,,Clear,0,2012-11-17 05:35:00
11:55 PM,26.6,24.8,93,29.96,10.0,Calm,Calm,-,N/A,,Clear,0,2012-11-17 05:55:00